986  
ASUS44 KLIX 302013  
RWRLIX  
NEW ORLEANS REGIONAL WEATHER ROUNDUP  
NATIONAL WEATHER SERVICE NEW ORLEANS LA  
300 PM CDT THU MAR 30 2017  
 
NOTE: "FAIR" INDICATES FEW OR NO CLOUDS BELOW 12,000 FEET WITH NO  
SIGNIFICANT WEATHER AND/OR S TO VISIBILITY
.  
SKY/WX - SKY CONDITION AND SIGNIFICANT WEATHER.  
TMP - AIR TEMPERATURE. DP - DEWPOINT TEMPERATURE.  
RH - RELATIVE HUMIDITY. PRES - PRESSURE.  
HI - HEAT INDEX. WCI - WIND CHILL INDEX.  
 
* THESE STATIONS ARE NOT NWS OR FAA STATIONS AND ARE NOT UNDER  
NWS QUALITY CONTROL.  
 
LAZ038-040-048-061>063-065>067-069-302100-  
SOUTHEAST LOUISIANA  
 
CITY SKY/WX TMP DP RH WIND PRES REMARKS
 
N.O. INTL ARPT CLOUDY 66 61 84 SE13 29.78F  
N.O. LAKEFRONT CLOUDY 66 61 84 SE13 29.79F  
N.O. DOWNTOWN* NOT AVBL  
RESERVE* NOT AVBL  
SLIDELL PTSUNNY 65 61 87 SE7 29.78F  
BATON ROUGE CLOUDY 72 61 68 S9 29.79F  
BOOTHVILLE RAIN 63 62 97 NE6 29.87F FOG  
BELLE CHASSE CLOUDY 64 64 100 E8 29.80F  
BOGALUSA* N/A 66 59 78 S9G17 29.79F  
GALLIANO* CLOUDY 65 61 86 E7G16 29.80F  
NEW ROADS* CLOUDY 71 61 71 S3 29.79F  
GONZALES* NOT AVBL  
HAMMOND* CLOUDY 68 59 73 S9 29.78S  
HOUMA* CLOUDY 66 63 88 E10 29.79F  
PORT FOURCHON* CLEAR 66 63 88 E14G28 29.80F  
 

 
 
MSZ070-080>082-302100-  
SOUTHERN MISSISSIPPI  
 
CITY SKY/WX TMP DP RH WIND PRES REMARKS
 
MCCOMB CLOUDY 66 57 72 S14 29.78F  
GULFPORT LGT RAIN 65 61 87 VRB3 29.83F  
BILOXI CLOUDY 66 60 79 N3 29.85F  
PASCAGOULA CLOUDY 68 60 75 N7 29.87S  
STENNIS ARPT* PTSUNNY 63 57 82 E8 29.80F  
 

 
 
COASTAL OBSERVATIONS  
LAKE AND NEARSHORE STATIONS  
 
STATION/POSITION TIME TEMP WIND PRES WAVE
 
AIR SEA DIR/SP/G HT/PER  
(UTC) (F) (DEG/KT/KT) (MB) (FT/S)  
PASCAGOULA 1948 68 330/ 10/ 13 1011.0  
WAVELAND YACHT 1948 64 75 90/ 7/ 9 1009.3  
GRAND ISLE 1948 67 75 110/ 15/ 20 1008.5  
SOUTHWEST PASS 1948 40/ 16/ 19 N/A  
NEW CANAL 1948 64 72 140/ 2/ 6 1008.6  
SHELL BEACH 1948 65 75 100/ 10/ 11 1009.3  
 
OFFSHORE STATIONS  
 
STATION/POSITION TIME TEMP WIND PRES WAVE
 
AIR SEA DIR/SP/G HT/PER  
(UTC) (F) (DEG/KT/KT) (MB) (FT/S)  
64 S DAUPHIN ISL 1950 66 73 310/ 27/ 41 1011.1 6/ 6  
 

 
 
 
 
CLICK HERE TO GO TO PREVIOUS BULLETINS.

The Nexlab LA Page
The Nexlab MS Page Main Text Page